TimePST,TemperatureF,Dew PointF,Humidity,Sea Level PressureIn,VisibilityMPH,Wind Direction,Wind SpeedMPH,Gust SpeedMPH,PrecipitationIn,Events,Conditions,WindDirDegrees,DateUTC
12:53 AM,50.0,46.0,86,30.14,10.0,Calm,Calm,-,N/A,,Clear,0,2012-12-07 08:53:00
1:53 AM,46.9,44.1,90,30.14,9.0,NE,3.5,-,N/A,,Partly Cloudy,50,2012-12-07 09:53:00
2:53 AM,46.9,44.1,90,30.13,8.0,NNE,3.5,-,N/A,,Clear,30,2012-12-07 10:53:00
3:53 AM,48.0,46.0,93,30.12,10.0,Calm,Calm,-,N/A,,Clear,0,2012-12-07 11:53:00
4:07 AM,46.4,44.6,93,30.13,1.8,Calm,Calm,-,N/A,,Clear,0,2012-12-07 12:07:00
4:09 AM,46.4,44.6,93,30.13,7.0,Calm,Calm,-,N/A,,Clear,0,2012-12-07 12:09:00
4:53 AM,48.9,45.0,86,30.13,10.0,Calm,Calm,-,N/A,,Clear,0,2012-12-07 12:53:00
5:53 AM,45.0,42.1,90,30.12,10.0,NE,3.5,-,N/A,,Clear,50,2012-12-07 13:53:00
6:53 AM,44.1,41.0,89,30.13,10.0,Calm,Calm,-,N/A,,Partly Cloudy,0,2012-12-07 14:53:00
7:53 AM,46.9,43.0,86,30.15,10.0,NE,3.5,-,N/A,Fog,Shallow Fog,50,2012-12-07 15:53:00
8:53 AM,51.1,48.0,89,30.16,10.0,ESE,3.5,-,N/A,,Scattered Clouds,120,2012-12-07 16:53:00
9:53 AM,55.0,48.9,80,30.17,10.0,South,3.5,-,N/A,,Scattered Clouds,190,2012-12-07 17:53:00
10:53 AM,55.0,48.0,77,30.16,10.0,Calm,Calm,-,N/A,,Partly Cloudy,0,2012-12-07 18:53:00
11:53 AM,57.0,48.0,72,30.14,10.0,Variable,5.8,-,N/A,,Partly Cloudy,0,2012-12-07 19:53:00
12:53 PM,60.1,48.0,64,30.12,10.0,West,5.8,-,N/A,,Partly Cloudy,280,2012-12-07 20:53:00
1:53 PM,62.1,46.0,56,30.09,10.0,West,3.5,-,N/A,,Partly Cloudy,270,2012-12-07 21:53:00
2:53 PM,62.1,43.0,50,30.09,10.0,West,4.6,-,N/A,,Partly Cloudy,260,2012-12-07 22:53:00
3:53 PM,60.1,50.0,69,30.09,10.0,West,6.9,-,N/A,,Scattered Clouds,280,2012-12-07 23:53:00
4:53 PM,57.2,50.0,77,30.09,10.0,WNW,8.1,-,N/A,,Scattered Clouds,300,2012-12-08 00:53:00
5:53 PM,55.9,48.0,75,30.09,10.0,WNW,5.8,-,N/A,,Mostly Cloudy,290,2012-12-08 01:53:00
6:53 PM,55.0,46.9,74,30.09,10.0,NNW,4.6,-,N/A,,Partly Cloudy,330,2012-12-08 02:53:00
7:53 PM,51.1,46.9,86,30.09,10.0,Calm,Calm,-,N/A,,Partly Cloudy,0,2012-12-08 03:53:00
8:53 PM,48.9,45.0,86,30.09,10.0,Calm,Calm,-,N/A,,Clear,0,2012-12-08 04:53:00
9:53 PM,50.0,45.0,83,30.09,10.0,Calm,Calm,-,N/A,,Partly Cloudy,0,2012-12-08 05:53:00
10:53 PM,46.9,43.0,86,30.10,10.0,NNE,4.6,-,N/A,,Scattered Clouds,20,2012-12-08 06:53:00
11:53 PM,46.0,42.1,86,30.10,10.0,ENE,3.5,-,N/A,,Scattered Clouds,60,2012-12-08 07:53:00